355P/LINEAR-NEAT (2017)

Japanese version
Home page
Updated on September 12, 2017

---------------------------------------------------------------------

* Profile

Designation 355P/2017 M2
Recovery Date June 21, 2017
Magnitude 19.6 mag
Recoverer Erwin Schwab (Egelsbach, Germany), Pablo Ruiz (European Space Agency's Optical Ground Station, Tenerife)

* Pictures

* Orbital Elements

Epoch 2017 Oct. 14.0 TT = JDT 2458040.5
T 2017 Oct. 12.68623 TT                                 MPCW
q   1.7159573            (2000.0)            P               Q
n   0.15204336     Peri.  336.34336     +0.87875814     -0.45318831
a   3.4766242      Node    51.45940     +0.46272386     +0.73216449
e   0.5064300      Incl.   11.03260     +0.11692204     +0.50848355
P   6.48
From 424 observations 2004 July 16-2017 June 22, mean residual 0".6.

* Finding Charts

* Magnitudes Graph

        m1 = 13.5 + 5 log d + 15.0 log r

        * Gray curve is:  m1 = 6.5 + 5 log d + 35 log r(t + 25)

---------------------------------------------------------------------

The orbital elements are published on M.P.E.C. 2017-M40.
The charts are made with StellaNavigator Ver.10 (AstroArts).
The magnitudes graphs are made with Comet for Windows.

---------------------------------------------------------------------

Copyright(C) Seiichi Yoshida (comet@aerith.net). All rights reserved.